Regional Weather Roundup
Issued by NWS

Home | Current Version | Previous Version | Text Only | Print | Product List | Glossary On
Versions: 1 2 3 4 5 6 7 8 9 10 11 12 13 14 15 16 17 18 19 20 21 22 23 24 25 26 27 28 29 30 31 32 33 34 35 36 37 38 39 40 41 42 43 44 45 46 47 48 49 50
014
ASUS44 KMEG 172110
RWRTN
TENNESSEE HOURLY STATE WEATHER ROUNDUP
NATIONAL WEATHER SERVICE MEMPHIS TN
300 PM CST FRI NOV 17 2017

TNZ002-004-019-021-049-052-054-088>092-172200-
WEST TENNESSEE

CITY           SKY/WX    TMP DP  RH WIND       PRES   REMARKS
MEMPHIS INTL   MOSUNNY   73  57  57 S20G26    29.89F
NWS MEMPHIS      N/A     72 N/A N/A MISG        N/A
JACKSON        PTSUNNY   68  50  52 S7        29.93F
DYERSBURG      MOSUNNY   67  53  61 S8G21     29.90F
SOMERVILLE     SUNNY     72  54  53 S10G21    29.91F
COVINGTON      PTSUNNY   70  54  56 S10       29.90F
UNION CITY     MOSUNNY   66  48  52 S10       29.89F
BOLIVAR        SUNNY     70  52  52 SE10G20   29.93F
PARIS          PTSUNNY   63  46  55 S12       29.92F
HUNTINGDON     PTSUNNY   64  46  52 S10       29.93F
LEXINGTON      CLOUDY    66  43  42 S8        29.96F
SELMER         CLOUDY    66  48  52 S10       29.97S
SAVANNAH       CLOUDY    66  46  48 SE3       29.97F
$$

TNZ008-025-027-028-033-062-065-066-172200-
NORTH MIDDLE TENNESSEE

CITY           SKY/WX    TMP DP  RH WIND       PRES   REMARKS
NASHVILLE      PTSUNNY   66  32  28 S9        30.01F
PORTLAND       SUNNY     59  43  55 S5        30.00F
CLARKSVILLE    PTSUNNY   62  39  42 SE8       29.96F
SMYRNA         SUNNY     64  34  32 S5        30.02S
COOKEVILLE     SUNNY     64  32  29 S8        30.01S
GALLATIN       SUNNY     61  43  51 CALM      30.03F
CROSSVILLE     SUNNY     59  32  36 VRB6      30.05F
$$

TNZ061-075-076-078-094-096-097-172200-
SOUTH MIDDLE TENNESSEE

CITY           SKY/WX    TMP DP  RH WIND       PRES   REMARKS
FAYETTEVILLE   SUNNY     66  28  24 SW8G16    30.01F
TULLAHOMA      SUNNY     66  28  24 S8        30.01S
WINCHESTER     SUNNY     66  34  30 S9        30.02F
MCMINNVILLE    SUNNY     66  28  24 SW6G13    30.01S
COLUMBIA       PTSUNNY   66  34  30 S7        29.99S
SHELBYVILLE    SUNNY     66  34  30 S9        30.01S
$$

TNZ017-018-042-046-047-172200-
NORTHEAST TENNESSEE

CITY           SKY/WX    TMP DP  RH WIND       PRES   REMARKS
TRI CITIES     MOSUNNY   62  26  25 W5        30.08F
ELIZABETHTON   SUNNY     63  25  23 W7        30.07F
$$

TNZ012-013-036-069-073-074-172200-
CENTRAL EAST TENNESSEE

CITY           SKY/WX    TMP DP  RH WIND       PRES   REMARKS
KNOXVILLE      PTSUNNY   62  41  46 N3        30.05F
OAK RIDGE      SUNNY     63  36  36 S5        30.07F
DOWNTOWN KNOXV SUNNY     63  37  39 CALM      30.06S
GATLINBURG     SUNNY     61  36  39 E5        30.06F
MORRISTOWN     SUNNY     59  34  38 CALM      30.06F
JACKSBORO      SUNNY     63  34  34 S5        30.09S
$$

TNZ083-085-099-172200-
SOUTHEAST TENNESSEE

CITY           SKY/WX    TMP DP  RH WIND       PRES   REMARKS
CHATTANOOGA    PTSUNNY   66  36  32 S6        30.06F
$$

SKY/WX REPORTED AS FAIR MEANS FEW OR NO CLOUDS BELOW
12 THOUSAND FEET.





USA.gov is the U.S. government's official web portal to all federal, state and local government web resources and services.